Location: Old Broadwell Mill Observatory
(33.8015°N, 85.8137°W)
Time: 18:16:35
(UTC-06:00)

Amateur Radio Satellites - All Passes

Search period start: 22 February 2017 17:46
Search period end: 23 February 2017 17:46
Location: Old Broadwell Mill Observatory, 33.8015°N, 85.8137°W

Satellite Date Start Highest point End Downlink Frequencies (MHz)
Time Altitude Azimuth
XW-2F 22 Feb 17:46:41 17:50:08 33° 262° (W) 17:53:38 145.980 - 146.000
KAITUO 1B 22 Feb 17:47:07 17:50:40 38° 262° (W) 17:54:16 145.475/437.950
XW-2D 22 Feb 17:49:30 17:52:51 28° 263° (W) 17:56:13 145.860 - 145.880
XW-2B 22 Feb 17:54:37 17:57:50 25° 264° (W) 18:01:05 145.730 - 145.750
XW-2C 22 Feb 18:03:33 18:06:23 20° 265° (W) 18:09:15 145.795 - 145.815
LilacSat-2 22 Feb 18:18:08 18:19:57 13° 267° (W) 18:21:47 437.200
NUDT-PHONESAT 22 Feb 18:28:16 18:29:43 12° 267° (W) 18:31:10 437.300
CUTE-I 22 Feb 18:32:22 18:35:57 18° 266° (W) 18:39:35 437.470
ZACube-1 22 Feb 18:37:54 18:39:26 12° 66° (ENE) 18:40:59 437.345
AAUSAT CUBESAT 2 22 Feb 18:40:08 18:43:33 25° 72° (ENE) 18:46:59 437.432
SEEDS 22 Feb 18:40:41 18:44:50 57° 76° (ENE) 18:49:00 437.485
HO-68 22 Feb 18:43:41 18:50:53 83° 255° (WSW) 18:58:06 435.675
RS-15 22 Feb 18:47:12 18:58:24 44° 310° (NW) 19:10:03 29.354- 29.394
XW-2A 22 Feb 18:55:16 18:58:08 26° 263° (W) 19:01:02 145.665 - 145.685
CUBEBUG 2 22 Feb 18:58:51 19:03:07 60° 76° (ENE) 19:07:33 437.445
STRAND 1 22 Feb 18:58:58 19:04:08 69° 102° (ESE) 19:09:13 437.568
CUTE 1.7 + AOD 2 22 Feb 19:13:22 19:17:16 34° 262° (W) 19:21:12 437.475
AO-73 22 Feb 19:25:20 19:29:23 38° 73° (ENE) 19:33:32 145.935
Oscar 11 22 Feb 19:36:01 19:40:08 43° 74° (ENE) 19:44:16 .
UWE-3 22 Feb 19:42:45 19:47:06 67° 259° (W) 19:51:36 435.000/436.395/437.385
ZACube-1 22 Feb 20:10:52 20:15:09 54° 261° (W) 20:19:34 437.345
AAUSAT CUBESAT 2 22 Feb 20:15:50 20:18:56 20° 265° (W) 20:22:02 437.432
YUBILEINY 22 Feb 20:27:05 20:34:24 29° 73° (ENE) 20:41:39 435.215
HO-68 22 Feb 20:38:04 20:39:24 11° 270° (W) 20:40:44 435.675
DELFI C3 22 Feb 20:39:19 20:43:17 76° 76° (ENE) 20:47:15 145.870
STRAND 1 22 Feb 20:40:40 20:42:39 12° 297° (WNW) 20:44:37 437.568
PRISM 22 Feb 20:46:17 20:50:04 37° 99° (E) 20:53:51 437.425
SO-50 22 Feb 21:02:46 21:05:21 15° 108° (ESE) 21:07:54 436.795
AO-73 22 Feb 21:03:07 21:05:44 15° 267° (W) 21:08:24 145.935
JUGNU 22 Feb 21:05:52 21:08:40 14° 166° (SSE) 21:11:29 437.505
RS-15 22 Feb 21:09:09 21:15:32 15° 341° (NNW) 21:21:58 29.354- 29.394
ESTCUBE 1 22 Feb 21:10:53 21:11:10 10° 65° (ENE) 21:11:27 437.505/2401.250
Oscar 11 22 Feb 21:14:29 21:16:25 13° 267° (W) 21:18:21 .
UNISAT 6 22 Feb 21:36:44 21:41:24 60° 100° (E) 21:45:59 437.425
TIGRISAT 22 Feb 21:38:00 21:42:39 57° 101° (E) 21:47:12 435.000
O/OREOS (USA 219) 22 Feb 21:54:06 21:57:43 25° 102° (ESE) 22:01:21 437.305
FO-29 22 Feb 22:00:00 22:07:21 49° 98° (E) 22:13:58 435.910
SPROUT 22 Feb 22:17:23 22:19:33 14° 67° (ENE) 22:21:43 437.525
PRISM 22 Feb 22:22:55 22:25:00 14° 293° (WNW) 22:27:05 437.425
YUBILEINY 22 Feb 22:23:07 22:31:26 52° 270° (W) 22:39:43 435.215
SO-50 22 Feb 22:40:50 22:45:23 49° 302° (WNW) 22:49:53 436.795
ESTCUBE 1 22 Feb 22:42:53 22:47:22 65° 258° (WSW) 22:51:51 437.505/2401.250
JUGNU 22 Feb 22:52:49 22:56:59 20° 176° (S) 23:01:09 437.505
50 SAT 22 Feb 22:57:52 23:01:01 32° 74° (ENE) 23:04:11 437.505
DUCHIFAT 1 22 Feb 23:05:27 23:09:25 36° 98° (E) 23:13:21 145.980
EO-79 22 Feb 23:12:37 23:16:50 56° 101° (E) 23:21:01 145.935-145.965
UNISAT 6 22 Feb 23:15:48 23:17:31 12° 295° (WNW) 23:19:13 437.425
TIGRISAT 22 Feb 23:16:49 23:18:45 12° 295° (WNW) 23:20:42 435.000
VELOX 1 22 Feb 23:20:57 23:25:19 76° 257° (WSW) 23:29:43 145.980
DX 1 22 Feb 23:22:22 23:26:29 44° 73° (ENE) 23:30:36 434.975-435.025
POLYITAN 1 22 Feb 23:29:08 23:33:27 89° 272° (W) 23:37:44 437.675
RS-15 22 Feb 23:29:27 23:35:59 15° 20° (NNE) 23:42:24 29.354- 29.394
AIST 2D 22 Feb 23:31:17 23:34:34 35° 286° (WNW) 23:37:49 435.315
NANOSAT C BR1 22 Feb 23:31:24 23:35:42 88° 102° (ESE) 23:39:57 145.865
QB50P2 22 Feb 23:31:59 23:36:17 76° 283° (WNW) 23:40:33 145.880/145.840
O/OREOS (USA 219) 22 Feb 23:33:22 23:37:00 24° 297° (WNW) 23:40:39 437.305
UKube-1 22 Feb 23:40:14 23:44:23 51° 74° (ENE) 23:48:34 .
FO-29 22 Feb 23:45:33 23:51:52 29° 296° (WNW) 23:57:45 435.910
SRMSAT 22 Feb 23:47:30 23:50:43 15° 167° (SSE) 23:53:55 437.500
SPROUT 22 Feb 23:51:04 23:55:04 40° 261° (W) 23:59:05 437.525
BUGSAT 1 23 Feb 00:14:01 00:18:17 83° 105° (ESE) 00:22:32 437.445
50 SAT 23 Feb 00:33:30 00:34:14 10° 266° (W) 00:34:57 437.505
Oscar 19 23 Feb 00:36:50 00:41:30 35° 98° (E) 00:46:09 437.125/150
JUGNU 23 Feb 00:41:19 00:45:20 19° 186° (S) 00:49:22 437.505
DUCHIFAT 1 23 Feb 00:42:15 00:44:44 15° 292° (WNW) 00:47:14 145.980
EO-79 23 Feb 00:51:13 00:52:03 10° 294° (WNW) 00:52:52 145.935-145.965
Gurwin Techsat 1B 23 Feb 00:59:10 01:03:53 32° 97° (E) 01:08:35 435.225
DX 1 23 Feb 01:01:04 01:02:50 12° 267° (W) 01:04:37 434.975-435.025
PCSat 23 Feb 01:17:14 01:22:17 38° 59° (ENE) 01:27:18 145.827
UKube-1 23 Feb 01:19:49 01:20:39 10° 267° (W) 01:21:30 .
SRMSAT 23 Feb 01:34:53 01:39:13 21° 177° (S) 01:43:33 437.500
RS-15 23 Feb 01:41:22 01:53:01 45° 50° (NE) 02:04:09 29.354- 29.394
ITUPSAT 1 23 Feb 01:48:24 01:53:12 83° 78° (ENE) 01:58:02 437.325
BEESAT 23 Feb 01:56:56 02:01:42 77° 257° (WSW) 02:06:31 436.000
Oscar 19 23 Feb 02:16:39 02:20:34 23° 292° (WNW) 02:24:29 437.125/150
JUGNU 23 Feb 02:31:46 02:33:38 11° 196° (SSW) 02:35:31 437.505
Gurwin Techsat 1B 23 Feb 02:39:16 02:43:39 27° 291° (WNW) 02:48:02 435.225
MOZHAYETS 4 23 Feb 02:42:12 02:46:49 75° 258° (WSW) 02:51:30
ITAMSAT 1 23 Feb 02:43:17 02:48:27 57° 101° (E) 02:53:34 435.822/435.867
AO-7 23 Feb 02:55:32 03:03:36 52° 103° (ESE) 03:11:34 .
PCSat 23 Feb 03:01:09 03:05:24 24° 254° (WSW) 03:09:37 145.827
SRMSAT 23 Feb 03:23:40 03:27:45 19° 187° (S) 03:31:49 437.500
KKS-1 23 Feb 03:32:57 03:37:22 81° 259° (WSW) 03:41:48 437.445
CUBESAT XI-V 23 Feb 03:34:20 03:38:55 57° 75° (ENE) 03:43:29 437.345
RS-15 23 Feb 03:54:04 04:05:36 52° 251° (WSW) 04:16:37 29.354- 29.394
M-CUBED/EXP-1 PRIME 23 Feb 04:01:12 04:04:32 75° 72° (ENE) 04:07:48 437.505
STARS 23 Feb 04:14:37 04:18:55 62° 259° (WSW) 04:23:15 437.465
AO-85 23 Feb 04:23:21 04:28:01 71° 299° (WNW) 04:32:21 145.980
ITAMSAT 1 23 Feb 04:24:28 04:27:22 15° 296° (WNW) 04:30:16 435.822/435.867
AO-7 23 Feb 04:48:56 04:55:56 32° 299° (WNW) 05:02:55 .
CUTE-I 23 Feb 05:12:09 05:16:33 25° 96° (E) 05:20:54 437.470
SRMSAT 23 Feb 05:14:42 05:16:13 11° 197° (SSW) 05:17:43 437.500
CUBESAT XI-V 23 Feb 05:15:14 05:16:34 11° 268° (W) 05:17:53 437.345
KAITUO 1B 23 Feb 05:22:32 05:25:40 24° 96° (E) 05:28:45 145.475/437.950
XW-2F 23 Feb 05:22:41 05:26:04 30° 97° (E) 05:29:25 145.980 - 146.000
DOVE 4 23 Feb 05:25:01 05:29:31 43° 99° (E) 05:34:16 437.250
XW-2D 23 Feb 05:25:35 05:29:07 35° 98° (E) 05:32:37 145.860 - 145.880
BEESAT 3 23 Feb 05:29:44 05:33:00 26° 112° (ESE) 05:36:17 437.485
XW-2B 23 Feb 05:30:30 05:34:07 40° 99° (E) 05:37:41 145.730 - 145.750
XW-2C 23 Feb 05:38:54 05:42:40 54° 100° (E) 05:46:23 145.795 - 145.815
LilacSat-2 23 Feb 05:52:53 05:56:45 90° 56° (NE) 06:00:34 437.200
NUDT-PHONESAT 23 Feb 06:00:07 06:03:54 86° 106° (ESE) 06:07:38 437.300
BEESAT 2 23 Feb 06:02:20 06:05:30 24° 111° (ESE) 06:08:44 435.950
STRAND 1 23 Feb 06:10:48 06:15:52 66° 74° (ENE) 06:20:58 437.568
HO-68 23 Feb 06:16:51 06:22:22 24° 95° (E) 06:27:50 435.675
XW-2A 23 Feb 06:20:59 06:23:44 22° 96° (E) 06:26:28 145.665 - 145.685
SEEDS 23 Feb 06:30:17 06:32:03 12° 93° (E) 06:33:48 437.485
CUTE-I 23 Feb 06:51:45 06:56:33 34° 290° (WNW) 07:01:20 437.470
CUBEBUG 2 23 Feb 06:54:20 06:57:42 19° 94° (E) 07:01:01 437.445
KAITUO 1B 23 Feb 06:57:01 06:59:27 17° 290° (WNW) 07:01:53 145.475/437.950
XW-2F 23 Feb 06:57:52 06:59:54 14° 291° (WNW) 07:01:56 145.980 - 146.000
XW-2D 23 Feb 07:01:20 07:02:56 12° 292° (WNW) 07:04:31 145.860 - 145.880
CUTE 1.7 + AOD 2 23 Feb 07:01:42 07:05:49 51° 100° (E) 07:09:53 437.475
DOVE 4 23 Feb 07:03:54 07:06:53 17° 291° (WNW) 07:09:59 437.250
ISS 23 Feb 07:05:06 07:07:48 24° 130° (SE) 07:10:31 437.550
XW-2B 23 Feb 07:06:47 07:07:53 11° 292° (WNW) 07:08:58 145.730 - 145.750
BEESAT 3 23 Feb 07:07:36 07:10:33 20° 307° (NW) 07:13:32 437.485
SO-50 23 Feb 07:15:47 07:20:08 47° 58° (ENE) 07:24:26 436.795
Oscar 11 23 Feb 07:29:43 07:30:41 11° 92° (E) 07:31:39 .
PRISM 23 Feb 07:32:49 07:35:22 16° 69° (ENE) 07:37:56 437.425
Tancredo 1 23 Feb 07:36:10 07:39:23 61° 134° (SE) 07:42:36 437.200
UWE-3 23 Feb 07:36:24 07:40:38 34° 97° (E) 07:44:48 435.000/436.395/437.385
BEESAT 2 23 Feb 07:40:03 07:43:11 22° 306° (NW) 07:46:22 435.950
STRAND 1 23 Feb 07:53:47 07:55:24 11° 268° (W) 07:57:03 437.568
XW-2A 23 Feb 07:54:10 07:56:17 16° 290° (WNW) 07:58:25 145.665 - 145.685
AAUSAT CUBESAT 2 23 Feb 08:00:29 08:04:36 82° 102° (ESE) 08:08:42 437.432
ZACube-1 23 Feb 08:03:07 08:07:23 38° 98° (E) 08:11:33 437.345
HO-68 23 Feb 08:03:24 08:10:19 55° 290° (WNW) 08:17:13 435.675
SEEDS 23 Feb 08:03:58 08:07:53 40° 286° (WNW) 08:11:46 437.485
O/OREOS (USA 219) 23 Feb 08:07:25 08:11:17 26° 64° (ENE) 08:15:09 437.305
FO-29 23 Feb 08:09:35 08:13:31 16° 58° (ENE) 08:17:37 435.910
DELFI C3 23 Feb 08:22:13 08:23:51 12° 93° (E) 08:25:29 145.870
CUBEBUG 2 23 Feb 08:30:00 08:34:20 36° 288° (WNW) 08:38:37 437.445
UNISAT 6 23 Feb 08:31:46 08:35:41 31° 72° (ENE) 08:39:43 437.425
TIGRISAT 23 Feb 08:32:55 08:36:46 30° 71° (ENE) 08:40:44 435.000
CUTE 1.7 + AOD 2 23 Feb 08:40:03 08:41:09 11° 294° (WNW) 08:42:13 437.475
ISS 23 Feb 08:41:22 08:44:11 26° 324° (NW) 08:47:01 437.550
AO-73 23 Feb 08:52:55 08:57:23 59° 285° (WNW) 09:01:46 145.935
SO-50 23 Feb 08:57:54 09:00:07 14° 252° (WSW) 09:02:21 436.795
Oscar 11 23 Feb 09:02:52 09:07:03 50° 286° (WNW) 09:11:13 .
PRISM 23 Feb 09:06:45 09:10:23 31° 262° (W) 09:14:01 437.425
UWE-3 23 Feb 09:13:27 09:16:47 20° 291° (WNW) 09:20:06 435.000/436.395/437.385
Tancredo 1 23 Feb 09:14:08 09:15:56 14° 330° (NNW) 09:17:44 437.200
YUBILEINY 23 Feb 09:22:45 09:30:39 39° 87° (E) 09:38:32 435.215
ZACube-1 23 Feb 09:40:25 09:43:17 17° 292° (WNW) 09:46:06 437.345
O/OREOS (USA 219) 23 Feb 09:46:53 09:50:32 24° 258° (WSW) 09:54:11 437.305
FO-29 23 Feb 09:50:29 09:57:18 90° 253° (WSW) 10:04:56 435.910
DUCHIFAT 1 23 Feb 09:54:24 09:57:04 17° 68° (ENE) 09:59:46 145.980
DELFI C3 23 Feb 09:55:09 09:58:45 35° 286° (WNW) 10:02:20 145.870
EO-79 23 Feb 10:01:32 10:04:56 25° 71° (ENE) 10:08:23 145.935-145.965
AIST 2D 23 Feb 10:01:33 10:04:50 37° 75° (ENE) 10:08:09 435.315
UNISAT 6 23 Feb 10:09:15 10:12:25 19° 266° (W) 10:15:38 437.425
TIGRISAT 23 Feb 10:10:11 10:13:26 20° 266° (W) 10:16:47 435.000
POLYITAN 1 23 Feb 10:17:42 10:21:37 39° 73° (ENE) 10:25:35 437.675
NANOSAT C BR1 23 Feb 10:19:32 10:23:23 37° 73° (ENE) 10:27:17 145.865
QB50P2 23 Feb 10:20:27 10:24:28 45° 74° (ENE) 10:28:32 145.880/145.840
ESTCUBE 1 23 Feb 10:39:25 10:43:30 34° 98° (E) 10:47:33 437.505/2401.250
BUGSAT 1 23 Feb 11:00:03 11:03:36 31° 72° (ENE) 11:07:13 437.445
VELOX 1 23 Feb 11:15:12 11:18:56 26° 97° (E) 11:22:39 145.980
DX 1 23 Feb 11:17:17 11:17:56 10° 93° (E) 11:18:34 434.975-435.025
YUBILEINY 23 Feb 11:19:10 11:27:16 40° 284° (WNW) 11:35:24 435.215
DUCHIFAT 1 23 Feb 11:28:42 11:32:27 32° 262° (W) 11:36:15 145.980
UKube-1 23 Feb 11:33:22 11:34:45 11° 93° (E) 11:36:09 .
EO-79 23 Feb 11:37:22 11:40:36 21° 264° (W) 11:43:53 145.935-145.965
SPROUT 23 Feb 11:40:23 11:44:30 42° 99° (E) 11:48:34 437.525
FO-29 23 Feb 11:40:25 11:43:18 13° 273° (W) 11:46:19 435.910
Oscar 19 23 Feb 11:49:51 11:54:30 35° 71° (ENE) 11:59:08 437.125/150
POLYITAN 1 23 Feb 11:55:25 11:57:32 14° 267° (W) 11:59:39 437.675
NANOSAT C BR1 23 Feb 11:56:59 11:59:12 14° 267° (W) 12:01:27 145.865
QB50P2 23 Feb 11:59:04 12:00:27 11° 267° (W) 12:01:51 145.880/145.840
50 SAT 23 Feb 11:59:05 12:02:32 65° 102° (ESE) 12:05:57 437.505
Gurwin Techsat 1B 23 Feb 12:16:25 12:21:11 35° 70° (ENE) 12:25:58 435.225
ESTCUBE 1 23 Feb 12:17:00 12:20:00 18° 292° (WNW) 12:22:59 437.505/2401.250
BUGSAT 1 23 Feb 12:36:38 12:39:00 15° 266° (W) 12:41:25 437.445
DX 1 23 Feb 12:50:06 12:54:21 53° 286° (WNW) 12:58:35 434.975-435.025
VELOX 1 23 Feb 12:51:48 12:55:12 22° 290° (WNW) 12:58:37 145.980
AO-85 23 Feb 12:58:43 13:02:07 27° 56° (NE) 13:05:33 145.980
UKube-1 23 Feb 13:06:50 13:10:59 48° 286° (WNW) 13:15:08 .
SPROUT 23 Feb 13:17:51 13:19:59 14° 293° (WNW) 13:22:08 437.525
Oscar 19 23 Feb 13:29:50 13:33:49 22° 264° (W) 13:37:49 437.125/150
AO-7 23 Feb 13:50:01 13:57:59 51° 66° (ENE) 14:05:57 .
ITUPSAT 1 23 Feb 13:53:16 13:57:25 29° 97° (E) 14:01:32 437.325
Gurwin Techsat 1B 23 Feb 13:56:55 14:01:07 24° 264° (W) 14:05:21 435.225
ITAMSAT 1 23 Feb 13:57:16 14:02:22 59° 74° (ENE) 14:07:30 435.822/435.867
BEESAT 23 Feb 14:01:09 14:05:33 36° 98° (E) 14:09:55 436.000
Tancredo 1 23 Feb 14:07:17 14:09:07 14° 30° (NNE) 14:10:55 437.200
AO-85 23 Feb 14:39:34 14:42:17 18° 249° (WSW) 14:45:04 145.980
MOZHAYETS 4 23 Feb 14:41:25 14:45:34 33° 97° (E) 14:49:42
ISS 23 Feb 15:11:37 15:14:51 55° 41° (NE) 15:18:03 437.550
BEESAT 3 23 Feb 15:26:45 15:30:45 65° 60° (ENE) 15:34:42 437.485
KKS-1 23 Feb 15:28:10 15:31:54 26° 97° (E) 15:35:37 437.445
ITUPSAT 1 23 Feb 15:31:14 15:35:04 24° 291° (WNW) 15:38:53 437.325
CUBESAT XI-V 23 Feb 15:35:43 15:38:56 19° 94° (E) 15:42:10 437.345
BEESAT 23 Feb 15:39:38 15:43:02 20° 292° (WNW) 15:46:25 436.000
ITAMSAT 1 23 Feb 15:39:43 15:42:08 13° 267° (W) 15:44:34 435.822/435.867
Tancredo 1 23 Feb 15:42:29 15:45:38 56° 226° (SW) 15:48:46 437.200
AO-7 23 Feb 15:43:43 15:50:51 31° 262° (W) 15:58:03 .
PCSat 23 Feb 15:54:24 15:59:47 79° 114° (ESE) 16:05:14 145.827
RS-15 23 Feb 15:59:32 16:10:02 40° 106° (ESE) 16:20:53 29.354- 29.394
BEESAT 2 23 Feb 16:00:17 16:04:17 60° 60° (ENE) 16:08:16 435.950
XW-2D 23 Feb 16:05:31 16:06:26 11° 67° (ENE) 16:07:22 145.860 - 145.880
STARS 23 Feb 16:07:58 16:11:54 31° 98° (E) 16:15:50 437.465
XW-2B 23 Feb 16:09:54 16:11:24 12° 68° (ENE) 16:12:54 145.730 - 145.750
XW-2C 23 Feb 16:17:34 16:19:52 15° 69° (ENE) 16:22:11 145.795 - 145.815
MOZHAYETS 4 23 Feb 16:19:13 16:22:27 19° 292° (WNW) 16:25:41
DOVE 4 23 Feb 16:27:48 16:31:08 24° 71° (ENE) 16:34:28 437.250
CUTE-I 23 Feb 16:30:12 16:34:41 28° 69° (ENE) 16:39:11 437.470
LilacSat-2 23 Feb 16:31:13 16:34:22 24° 72° (ENE) 16:37:31 437.200
NUDT-PHONESAT 23 Feb 16:36:19 16:39:10 21° 71° (ENE) 16:42:02 437.300
HO-68 23 Feb 16:45:05 16:47:28 12° 56° (NE) 16:49:50 435.675
ISS 23 Feb 16:50:39 16:50:55 10° 234° (SW) 16:51:11 437.550
KKS-1 23 Feb 17:04:44 17:08:18 24° 290° (WNW) 17:11:50 437.445
CUBESAT XI-V 23 Feb 17:12:14 17:16:20 33° 288° (WNW) 17:20:26 437.345
M-CUBED/EXP-1 PRIME 23 Feb 17:16:25 17:20:13 75° 287° (WNW) 17:24:20 437.505
KAITUO 1B 23 Feb 17:31:40 17:35:25 64° 259° (W) 17:39:13 145.475/437.950
XW-2F 23 Feb 17:33:04 17:36:47 50° 260° (W) 17:40:32 145.980 - 146.000
XW-2D 23 Feb 17:36:33 17:40:11 42° 261° (W) 17:43:52 145.860 - 145.880
PCSat 23 Feb 17:41:06 17:43:47 14° 311° (NW) 17:46:29 145.827
